Weather History for Fort Polk, LA

Change the Weather History Date:

Saturday, August 3, 2013

  Actual Average (KPOE) Record (KPOE)
Temperature  
Mean Temperature 86 °F -  
Max Temperature 97 °F 91 °F 102 °F (2011)
Min Temperature 75 °F 71 °F 69 °F (1997)
Cooling Degree Days 21    
Growing Degree Days 36 (Base 50)    
Moisture  
Dew Point 72 °F    
Average Humidity 67    
Maximum Humidity 90    
Minimum Humidity 37    
Precipitation  
Precipitation 0.00 in - - ()
Sea Level Pressure  
Sea Level Pressure 30.07 in    
Wind  
Wind Speed 1 mph (SW)    
Max Wind Speed 5 mph    
Max Gust Speed -    
Visibility 10 miles    
Events      
Averages and records for this station are not official NWS values.
T = Trace of Precipitation, MM = Missing Value Source: NWS Daily Summary

Daily Weather History Graph

Daily Weather History Graph

Search for Another Location

Airport:

Trip Planner

Search our weather history database for the weather conditions in past years. The results will help you decide how hot, cold, wet, or windy it might be!

Date:

Astronomy

Aug. 03, 2013 Rise Set
Actual Time 6:30 AM CDT 8:04 PM CDT
Civil Twilight 6:04 AM CDT 8:31 PM CDT
Nautical Twilight 5:32 AM CDT 9:02 PM CDT
Astronomical Twilight 4:59 AM CDT 9:35 PM CDT
Moon 3:42 AM CDT (8/3) 5:45 PM CDT (8/3)
Length of Visible Light 14h 26m
Length of Day
13h 34m
Waning Crescent, 9% of the Moon is Illuminated
Aug 3
Waning Crescent
Aug 6
New
Aug 14
First Quarter
Aug 20
Full
Aug 28
Last Quarter

Hourly Weather History & Observations

Time (CDT) Temp. Heat Index Dew Point Humidity Pressure Visibility Wind Dir Wind Speed Gust Speed Precip Events Conditions
12:54 AM 82.0 °F 87.4 °F 73.0 °F 74% 30.05 in 10.0 mi Calm Calm - N/A   Clear
1:54 AM 80.1 °F 83.8 °F 72.0 °F 76% 30.04 in 10.0 mi Calm Calm - N/A   Clear
2:54 AM 79.0 °F - 73.0 °F 82% 30.04 in 10.0 mi Calm Calm - N/A   Clear
3:54 AM 77.0 °F - 72.0 °F 84% 30.04 in 10.0 mi Calm Calm - N/A   Clear
4:54 AM 75.0 °F - 72.0 °F 90% 30.04 in 9.0 mi Calm Calm - N/A   Clear
5:54 AM 75.0 °F - 72.0 °F 90% 30.05 in 8.0 mi Calm Calm - N/A   Clear
6:54 AM 75.0 °F - 72.0 °F 90% 30.06 in 6.0 mi Calm Calm - N/A   Clear
7:54 AM 79.0 °F - 73.9 °F 84% 30.08 in 10.0 mi SW 3.5 mph - N/A   Clear
8:54 AM 84.0 °F 91.9 °F 75.0 °F 74% 30.09 in 10.0 mi Variable 3.5 mph - N/A   Partly Cloudy
9:54 AM 88.0 °F 97.5 °F 75.0 °F 65% 30.10 in 10.0 mi Variable 3.5 mph - N/A   Partly Cloudy
11:54 AM 91.9 °F 98.4 °F 71.1 °F 50% 30.11 in 10.0 mi Calm Calm - N/A   Clear
12:54 PM 93.0 °F 99.0 °F 70.0 °F 47% 30.10 in 10.0 mi Variable 4.6 mph - N/A   Clear
1:54 PM 95.0 °F 100.7 °F 69.1 °F 43% 30.08 in 10.0 mi Calm Calm - N/A   Clear
2:54 PM 96.1 °F 102.9 °F 70.0 °F 43% 30.07 in 10.0 mi Calm Calm - N/A   Partly Cloudy
3:54 PM 97.0 °F 102.8 °F 69.1 °F 40% 30.05 in 10.0 mi Calm Calm - N/A   Partly Cloudy
4:54 PM 97.0 °F 101.0 °F 66.9 °F 37% 30.04 in 10.0 mi Calm Calm - N/A   Clear
5:54 PM 95.0 °F 102.5 °F 71.1 °F 46% 30.05 in 10.0 mi Calm Calm - N/A   Clear
6:54 PM 91.9 °F 100.7 °F 73.0 °F 54% 30.04 in 10.0 mi Calm Calm - N/A   Clear
7:54 PM 87.1 °F 97.3 °F 75.9 °F 69% 30.06 in 10.0 mi Calm Calm - N/A   Clear
8:54 PM 84.9 °F 93.3 °F 75.0 °F 72% 30.08 in 10.0 mi Calm Calm - N/A   Clear
9:54 PM 82.9 °F 90.2 °F 75.0 °F 77% 30.09 in 10.0 mi Calm Calm - N/A   Clear
10:54 PM 81.0 °F 86.2 °F 73.9 °F 79% 30.10 in 10.0 mi Calm Calm - N/A   Clear
11:54 PM 80.1 °F 84.2 °F 73.0 °F 79% 30.11 in 10.0 mi Calm Calm - N/A   Clear